�������l�o���
Date,Time,MP-1(��Sv/h),MP-2(��Sv/h),MP-3(��Sv/h),MP-4(��Sv/h),MP-5(��Sv/h),MP-6(��Sv/h),MP-7(��Sv/h),MP-8(��Sv/h),����,����(m/s),���J
2024/06/24,00:00,0.482,0.737,0.473,0.919,0.670,0.310,0.540,0.502,-,CALM,��
2024/06/24,00:10,0.481,0.738,0.472,0.921,0.669,0.311,0.540,0.500,-,CALM,��
2024/06/24,00:20,0.482,0.737,0.473,0.918,0.671,0.310,0.540,0.500,�k�k��,0.6,��
2024/06/24,00:30,0.484,0.737,0.472,0.917,0.668,0.309,0.539,0.500,-,CALM,��
2024/06/24,00:40,0.480,0.739,0.471,0.918,0.670,0.310,0.541,0.499,��쓌,0.6,��
2024/06/24,00:50,0.481,0.737,0.471,0.918,0.670,0.309,0.540,0.500,��,0.6,��
2024/06/24,01:00,0.482,0.737,0.473,0.916,0.668,0.310,0.540,0.500,-,CALM,��
2024/06/24,01:10,0.481,0.738,0.471,0.918,0.668,0.308,0.540,0.501,�쐼,0.6,��
2024/06/24,01:20,0.481,0.736,0.471,0.917,0.671,0.309,0.539,0.500,�k�k��,0.6,��
2024/06/24,01:30,0.482,0.735,0.473,0.917,0.668,0.309,0.538,0.500,�k,1.7,��
2024/06/24,01:40,0.479,0.736,0.471,0.918,0.669,0.309,0.539,0.500,�k,1.5,��
2024/06/24,01:50,0.479,0.735,0.472,0.919,0.670,0.309,0.538,0.499,�k,0.6,��
2024/06/24,02:00,0.481,0.737,0.470,0.916,0.669,0.308,0.539,0.500,�k,0.8,��
2024/06/24,02:10,0.481,0.736,0.472,0.919,0.668,0.309,0.540,0.501,���k��,0.9,��
2024/06/24,02:20,0.480,0.737,0.471,0.918,0.671,0.311,0.541,0.502,-,CALM,��
2024/06/24,02:30,0.480,0.738,0.472,0.918,0.670,0.308,0.539,0.501,��쐼,1.5,��
2024/06/24,02:40,0.481,0.739,0.472,0.919,0.670,0.308,0.538,0.499,��,1.1,��
2024/06/24,02:50,0.481,0.738,0.471,0.917,0.671,0.308,0.539,0.500,�쓌,0.9,��
2024/06/24,03:00,0.481,0.738,0.471,0.917,0.668,0.309,0.540,0.501,���k��,1.1,��
2024/06/24,03:10,0.480,0.737,0.473,0.916,0.670,0.309,0.539,0.501,���k��,1.1,��
2024/06/24,03:20,0.481,0.739,0.472,0.919,0.669,0.308,0.539,0.501,�k��,0.8,��
2024/06/24,03:30,0.481,0.739,0.472,0.917,0.670,0.308,0.538,0.501,-,CALM,��
2024/06/24,03:40,0.482,0.738,0.470,0.920,0.671,0.310,0.539,0.501,�k��,0.6,��
2024/06/24,03:50,0.481,0.736,0.470,0.917,0.671,0.309,0.538,0.500,-,CALM,��
2024/06/24,04:00,0.480,0.739,0.472,0.917,0.667,0.309,0.540,0.500,-,CALM,��
2024/06/24,04:10,0.481,0.737,0.470,0.917,0.671,0.308,0.539,0.501,-,CALM,��
2024/06/24,04:20,0.484,0.739,0.472,0.919,0.671,0.310,0.539,0.500,�k�k��,0.9,��
2024/06/24,04:30,0.483,0.737,0.472,0.917,0.669,0.308,0.538,0.501,-,CALM,��
2024/06/24,04:40,0.482,0.737,0.472,0.918,0.669,0.309,0.538,0.502,��쐼,2.2,��
2024/06/24,04:50,0.484,0.738,0.471,0.918,0.670,0.309,0.539,0.502,��,2.3,��
2024/06/24,05:00,0.483,0.737,0.472,0.919,0.669,0.308,0.539,0.500,���쐼,1.1,��
2024/06/24,05:10,0.483,0.739,0.472,0.918,0.670,0.309,0.540,0.501,��쐼,1.4,�L
2024/06/24,05:20,0.483,0.741,0.471,0.918,0.668,0.309,0.539,0.504,-,CALM,�L
2024/06/24,05:30,0.484,0.739,0.471,0.918,0.671,0.310,0.540,0.502,��쐼,0.9,��
2024/06/24,05:40,0.482,0.740,0.471,0.919,0.670,0.308,0.538,0.500,��쐼,1.5,��
2024/06/24,05:50,0.482,0.739,0.472,0.919,0.669,0.308,0.539,0.500,�쐼,1.5,�L
2024/06/24,06:00,0.483,0.741,0.472,0.917,0.669,0.308,0.539,0.501,��쐼,2.3,�L
2024/06/24,06:10,0.483,0.742,0.473,0.920,0.671,0.308,0.539,0.500,��쓌,2.0,�L
2024/06/24,06:20,0.485,0.741,0.472,0.920,0.671,0.309,0.539,0.502,��,2.2,�L
2024/06/24,06:30,0.484,0.741,0.472,0.921,0.672,0.311,0.538,0.500,��,2.6,�L
2024/06/24,06:40,0.484,0.739,0.473,0.919,0.669,0.311,0.537,0.501,��쓌,4.2,��
2024/06/24,06:50,0.485,0.740,0.472,0.919,0.671,0.310,0.537,0.500,��,5.5,��
2024/06/24,07:00,0.483,0.740,0.472,0.918,0.669,0.310,0.538,0.501,��,5.3,��
2024/06/24,07:10,0.483,0.740,0.474,0.918,0.670,0.310,0.538,0.498,��쓌,2.0,��
2024/06/24,07:20,0.480,0.736,0.472,0.919,0.667,0.310,0.539,0.500,��,4.3,��
2024/06/24,07:30,0.482,0.738,0.473,0.917,0.668,0.308,0.539,0.500,��,2.5,��
2024/06/24,07:40,0.482,0.737,0.472,0.917,0.670,0.310,0.539,0.501,��,1.9,��
2024/06/24,07:50,0.482,0.739,0.472,0.917,0.669,0.309,0.538,0.502,��,2.3,��
2024/06/24,08:00,0.483,0.740,0.473,0.921,0.670,0.309,0.538,0.500,��,2.2,��
2024/06/24,08:10,0.483,0.740,0.471,0.918,0.670,0.309,0.540,0.500,���쐼,1.5,��
2024/06/24,08:20,0.481,0.738,0.470,0.918,0.669,0.311,0.539,0.499,���k��,2.2,��
2024/06/24,08:30,0.482,0.738,0.471,0.917,0.669,0.309,0.540,0.501,�k��,1.7,��
2024/06/24,08:40,0.484,0.738,0.471,0.917,0.668,0.309,0.539,0.500,�k�k��,2.6,��
2024/06/24,08:50,0.483,0.741,0.472,0.918,0.670,0.309,0.540,0.500,�k��,1.4,��
2024/06/24,09:00,0.482,0.739,0.471,0.918,0.668,0.310,0.542,0.500,�k��,1.7,��
2024/06/24,09:10,0.483,0.741,0.472,0.918,0.669,0.308,0.540,0.501,�k,3.0,��
2024/06/24,09:20,0.485,0.741,0.472,0.917,0.671,0.309,0.541,0.500,�k,3.3,��
2024/06/24,09:30,0.484,0.741,0.471,0.918,0.671,0.309,0.540,0.500,�k,3.0,��
2024/06/24,09:40,0.485,0.741,0.473,0.919,0.670,0.310,0.541,0.501,�k�k��,3.1,��
2024/06/24,09:50,0.483,0.742,0.470,0.919,0.669,0.310,0.542,0.500,�k��,3.1,��
2024/06/24,10:00,0.484,0.743,0.474,0.917,0.668,0.310,0.542,0.502,�k��,2.0,��
2024/06/24,10:10,0.485,0.741,0.472,0.919,0.670,0.308,0.541,0.500,�k�k��,1.7,��
2024/06/24,10:20,0.485,0.744,0.474,0.915,0.671,0.308,0.543,0.502,�k�k��,1.5,�L
2024/06/24,10:30,0.485,0.744,0.474,0.917,0.671,0.309,0.541,0.502,�k��,0.6,��
2024/06/24,10:40,0.485,0.745,0.476,0.918,0.673,0.309,0.541,0.501,�k�k��,2.2,��
2024/06/24,10:50,0.485,0.745,0.473,0.917,0.673,0.312,0.544,0.502,�k��,1.2,��
2024/06/24,11:00,0.486,0.745,0.476,0.917,0.673,0.309,0.543,0.502,���쓌,1.1,��
2024/06/24,11:10,0.486,0.747,0.474,0.916,0.673,0.309,0.543,0.502,�쓌,1.5,��
2024/06/24,11:20,0.486,0.745,0.475,0.919,0.672,0.309,0.545,0.502,�k�k��,0.6,��
2024/06/24,11:30,0.487,0.745,0.476,0.918,0.675,0.311,0.545,0.503,�k�k��,3.2,��
2024/06/24,11:40,0.482,0.744,0.476,0.916,0.674,0.311,0.545,0.503,�k�k��,2.2,��
2024/06/24,11:50,0.486,0.747,0.474,0.918,0.674,0.310,0.544,0.502,�k�k��,2.6,��
2024/06/24,12:00,0.487,0.743,0.478,0.920,0.674,0.309,0.544,0.504,�k��,2.6,��
2024/06/24,12:10,0.486,0.744,0.477,0.917,0.674,0.311,0.544,0.503,���k��,3.0,��
2024/06/24,12:20,0.487,0.747,0.476,0.919,0.677,0.312,0.546,0.504,���쐼,5.0,��
2024/06/24,12:30,0.487,0.747,0.478,0.922,0.675,0.312,0.546,0.504,��,9.9,��
2024/06/24,12:40,0.487,0.748,0.476,0.922,0.677,0.312,0.548,0.504,��,7.9,��
2024/06/24,12:50,0.488,0.747,0.479,0.921,0.676,0.311,0.549,0.504,���k��,7.5,��
2024/06/24,13:00,0.489,0.747,0.480,0.922,0.677,0.312,0.548,0.504,���k��,9.4,��
2024/06/24,13:10,0.488,0.748,0.479,0.924,0.676,0.312,0.546,0.504,��,8.2,��
2024/06/24,13:20,0.489,0.749,0.479,0.925,0.679,0.313,0.547,0.504,��,8.9,��
2024/06/24,13:30,0.490,0.749,0.479,0.924,0.679,0.314,0.547,0.505,��,7.3,��
2024/06/24,13:40,0.488,0.749,0.479,0.926,0.677,0.314,0.548,0.506,��,7.9,��
2024/06/24,13:50,0.490,0.748,0.480,0.926,0.681,0.313,0.546,0.505,��,7.1,��
2024/06/24,14:00,0.489,0.749,0.479,0.926,0.678,0.313,0.547,0.506,���쐼,8.1,��
2024/06/24,14:10,0.491,0.750,0.479,0.926,0.680,0.314,0.546,0.506,��,7.7,��
2024/06/24,14:20,0.490,0.751,0.480,0.928,0.682,0.313,0.547,0.507,���쐼,7.5,��
2024/06/24,14:30,0.490,0.752,0.479,0.929,0.681,0.312,0.545,0.506,��,6.5,��
2024/06/24,14:40,0.491,0.749,0.479,0.927,0.682,0.312,0.546,0.506,���쐼,6.9,��
2024/06/24,14:50,0.491,0.750,0.481,0.931,0.681,0.313,0.546,0.507,���쐼,6.0,��
2024/06/24,15:00,0.491,0.753,0.479,0.929,0.682,0.313,0.546,0.506,��,5.4,��
2024/06/24,15:10,0.491,0.753,0.481,0.932,0.684,0.313,0.545,0.507,��,5.1,��
2024/06/24,15:20,0.491,0.753,0.484,0.930,0.681,0.314,0.546,0.506,���쐼,4.3,��
2024/06/24,15:30,0.492,0.755,0.484,0.931,0.682,0.314,0.547,0.507,���쐼,4.7,��
2024/06/24,15:40,0.492,0.754,0.483,0.931,0.683,0.314,0.546,0.505,��,3.4,��
2024/06/24,15:50,0.492,0.755,0.483,0.934,0.683,0.314,0.545,0.507,���쐼,3.3,��
2024/06/24,16:00,0.494,0.756,0.483,0.932,0.680,0.314,0.547,0.507,��,2.8,��
2024/06/24,16:10,0.493,0.754,0.482,0.933,0.682,0.315,0.545,0.506,��,2.3,��
2024/06/24,16:20,0.493,0.754,0.482,0.932,0.684,0.314,0.545,0.507,��,3.6,��
2024/06/24,16:30,0.492,0.753,0.483,0.932,0.684,0.315,0.545,0.507,���쐼,3.2,��
2024/06/24,16:40,0.493,0.753,0.482,0.934,0.682,0.315,0.546,0.506,��,4.9,��
2024/06/24,16:50,0.494,0.754,0.482,0.933,0.682,0.315,0.546,0.506,��,4.0,��
2024/06/24,17:00,0.493,0.752,0.483,0.934,0.684,0.315,0.547,0.507,���k��,3.3,��
2024/06/24,17:10,0.492,0.754,0.482,0.936,0.683,0.314,0.546,0.507,���k��,3.1,��
2024/06/24,17:20,0.494,0.755,0.484,0.935,0.683,0.315,0.547,0.508,��,3.9,��
2024/06/24,17:30,0.494,0.757,0.483,0.936,0.683,0.315,0.546,0.509,��,6.2,��
2024/06/24,17:40,0.492,0.755,0.483,0.936,0.683,0.315,0.545,0.508,��,4.7,��
2024/06/24,17:50,0.495,0.756,0.483,0.935,0.684,0.315,0.544,0.507,���k��,3.4,��
2024/06/24,18:00,0.492,0.756,0.483,0.935,0.684,0.314,0.545,0.507,���k��,4.4,��
2024/06/24,18:10,0.493,0.754,0.482,0.937,0.681,0.316,0.544,0.507,��,4.3,��
2024/06/24,18:20,0.491,0.753,0.483,0.937,0.683,0.314,0.545,0.507,���k��,4.5,��
2024/06/24,18:30,0.492,0.754,0.483,0.933,0.682,0.315,0.546,0.507,���k��,4.2,��
2024/06/24,18:40,0.493,0.753,0.481,0.937,0.682,0.315,0.545,0.508,���k��,3.0,��
2024/06/24,18:50,0.494,0.753,0.482,0.935,0.685,0.315,0.548,0.507,���k��,2.6,��
2024/06/24,19:00,0.493,0.753,0.482,0.935,0.684,0.315,0.547,0.507,���k��,2.6,��
2024/06/24,19:10,0.492,0.753,0.481,0.936,0.685,0.314,0.546,0.507,���k��,2.3,��
2024/06/24,19:20,0.494,0.755,0.483,0.937,0.685,0.314,0.546,0.508,���k��,2.3,��
2024/06/24,19:30,0.495,0.754,0.482,0.937,0.684,0.314,0.547,0.508,�k��,2.3,��
2024/06/24,19:40,0.492,0.753,0.483,0.936,0.685,0.315,0.545,0.506,�k�k��,2.9,��
2024/06/24,19:50,0.493,0.756,0.482,0.937,0.686,0.314,0.546,0.508,�k�k��,3.3,��
2024/06/24,20:00,0.493,0.756,0.482,0.936,0.685,0.315,0.546,0.508,�k�k��,3.3,��
2024/06/24,20:10,0.495,0.754,0.484,0.936,0.684,0.315,0.547,0.507,�k�k��,3.6,��
2024/06/24,20:20,0.493,0.755,0.482,0.938,0.684,0.315,0.545,0.508,�k�k��,3.3,��
2024/06/24,20:30,0.493,0.756,0.482,0.936,0.684,0.314,0.547,0.507,�k,3.2,��
2024/06/24,20:40,0.495,0.754,0.483,0.938,0.684,0.315,0.546,0.508,�k�k��,1.5,��
2024/06/24,20:50,0.492,0.756,0.482,0.938,0.685,0.314,0.545,0.510,�k�k��,2.3,��
2024/06/24,21:00,0.494,0.757,0.482,0.940,0.686,0.313,0.547,0.507,�k�k��,2.9,��
2024/06/24,21:10,0.491,0.757,0.483,0.939,0.686,0.314,0.546,0.508,�k,2.6,��
2024/06/24,21:20,0.494,0.755,0.482,0.936,0.686,0.314,0.547,0.507,�k,3.6,��
2024/06/24,21:30,0.492,0.757,0.482,0.937,0.687,0.315,0.546,0.508,�k,2.3,��
2024/06/24,21:40,0.495,0.756,0.485,0.936,0.686,0.316,0.547,0.508,�k�k��,1.5,��
2024/06/24,21:50,0.494,0.756,0.484,0.935,0.685,0.313,0.546,0.507,���쐼,1.5,��
2024/06/24,22:00,0.493,0.754,0.482,0.939,0.685,0.314,0.547,0.508,��,2.3,��
2024/06/24,22:10,0.494,0.757,0.484,0.939,0.686,0.314,0.546,0.508,���쐼,1.7,��
2024/06/24,22:20,0.494,0.757,0.483,0.936,0.686,0.315,0.547,0.507,��,3.3,��
2024/06/24,22:30,0.493,0.757,0.483,0.937,0.685,0.315,0.546,0.508,��,2.6,��
2024/06/24,22:40,0.493,0.758,0.484,0.939,0.686,0.314,0.547,0.509,��,2.3,��
2024/06/24,22:50,0.491,0.757,0.484,0.938,0.686,0.313,0.547,0.508,��쓌,2.9,��
2024/06/24,23:00,0.494,0.755,0.481,0.937,0.686,0.314,0.547,0.508,�쓌,2.8,��
2024/06/24,23:10,0.493,0.754,0.484,0.938,0.685,0.313,0.546,0.507,�쓌,3.1,��
2024/06/24,23:20,0.493,0.756,0.484,0.939,0.685,0.314,0.546,0.508,���쓌,2.6,��
2024/06/24,23:30,0.492,0.756,0.483,0.939,0.686,0.313,0.547,0.507,���쓌,2.0,��
2024/06/24,23:40,0.493,0.757,0.482,0.938,0.685,0.314,0.547,0.508,��쓌,2.6,��
2024/06/24,23:50,0.493,0.757,0.483,0.939,0.685,0.314,0.545,0.508,�쓌,2.9,��
